CES5402 TNCM-GVNP

Flight info

Callsign CES5402
Flight time N/A
Altitude 35000
Route ELOPO DCT NAKAL DCT 17N055W 17N045W/N0453F370 17N035W DCT RANUR DCT LOTSU
Aircraft A320/M-SDE2E3FGILRWXY/LB2

Departure

Time 2026-05-01 11:47
Airport Princess Juliana International Airport (TNCM)

Arrival

Time N/A
Airport Nelson Mandela International Airport (GVNP)
Time Latitude Longitude Altitude Speed Heading
2026-05-01 11:32 18.04229 -63.11585 29 ft 0 kts 320°
2026-05-01 11:41 18.04229 -63.11584 28 ft 1 kts 320°
2026-05-01 11:41 18.04210 -63.11567 28 ft 4 kts 314°
2026-05-01 11:41 18.04193 -63.11546 28 ft 4 kts 298°
2026-05-01 11:42 18.04187 -63.11522 28 ft 4 kts 240°
2026-05-01 11:42 18.04189 -63.11517 28 ft 0 kts 231°
2026-05-01 11:44 18.04189 -63.11518 28 ft 1 kts 231°
2026-05-01 11:44 18.04167 -63.11546 28 ft 9 kts 231°
2026-05-01 11:44 18.04116 -63.11614 28 ft 13 kts 231°
2026-05-01 11:45 18.04066 -63.11689 28 ft 12 kts 249°
2026-05-01 11:45 18.04051 -63.11780 27 ft 14 kts 262°
2026-05-01 11:45 18.04037 -63.11876 28 ft 10 kts 258°
2026-05-01 11:45 18.04008 -63.11932 28 ft 9 kts 232°
2026-05-01 11:46 18.03958 -63.11966 27 ft 9 kts 167°
2026-05-01 11:46 18.03946 -63.11923 27 ft 0 kts 83°
2026-05-01 11:47 18.03950 -63.11886 27 ft 27 kts 83°
2026-05-01 11:47 18.04024 -63.11370 28 ft 112 kts 81°
2026-05-01 11:47 18.04170 -63.10339 62 ft 169 kts 81°
2026-05-01 11:47 18.04326 -63.09113 796 ft 173 kts 91°
2026-05-01 11:48 18.03902 -63.07920 1706 ft 180 kts 136°
2026-05-01 11:48 18.02748 -63.07433 2614 ft 186 kts 178°
2026-05-01 11:48 18.01460 -63.07545 3544 ft 185 kts 181°
2026-05-01 11:48 18.00168 -63.07632 3944 ft 197 kts 180°
2026-05-01 11:49 17.98719 -63.07704 4157 ft 219 kts 180°
2026-05-01 11:49 17.97109 -63.07774 4386 ft 244 kts 180°
2026-05-01 11:49 17.95352 -63.07847 4885 ft 259 kts 180°
2026-05-01 11:49 17.93531 -63.07924 5647 ft 264 kts 180°
2026-05-01 11:50 17.91678 -63.08003 6414 ft 269 kts 180°
2026-05-01 11:50 17.89796 -63.08080 7141 ft 273 kts 180°
2026-05-01 11:50 17.87886 -63.08156 7876 ft 276 kts 181°
2026-05-01 11:50 17.85983 -63.07920 8576 ft 279 kts 157°
2026-05-01 11:51 17.84415 -63.06735 9238 ft 283 kts 127°
2026-05-01 11:51 17.83641 -63.04853 9885 ft 286 kts 95°
2026-05-01 11:51 17.83763 -63.02758 10461 ft 291 kts 82°
2026-05-01 11:51 17.83845 -63.00583 10767 ft 310 kts 96°
2026-05-01 11:52 17.83275 -62.98329 10900 ft 332 kts 112°
2026-05-01 11:52 17.82359 -62.96017 11017 ft 354 kts 114°
2026-05-01 11:52 17.81337 -62.93592 11152 ft 373 kts 114°
2026-05-01 11:52 17.80250 -62.91083 11541 ft 381 kts 115°
2026-05-01 11:53 17.79143 -62.88541 12084 ft 385 kts 115°
2026-05-01 11:53 17.78029 -62.85972 12618 ft 389 kts 115°
2026-05-01 11:53 17.76914 -62.83376 13158 ft 393 kts 115°
2026-05-01 11:53 17.75793 -62.80748 13680 ft 396 kts 115°
2026-05-01 11:54 17.74664 -62.78094 14150 ft 400 kts 115°
2026-05-01 11:54 17.73525 -62.75412 14615 ft 404 kts 115°
2026-05-01 11:54 17.72381 -62.72717 15079 ft 407 kts 115°
2026-05-01 11:54 17.71221 -62.69995 15543 ft 410 kts 115°
2026-05-01 11:55 17.70050 -62.67249 16011 ft 414 kts 115°
2026-05-01 11:55 17.68871 -62.64483 16482 ft 417 kts 115°
2026-05-01 11:55 17.67681 -62.61698 16940 ft 420 kts 116°
2026-05-01 11:55 17.66480 -62.58887 17393 ft 424 kts 116°
2026-05-01 11:56 17.65259 -62.56060 17858 ft 427 kts 118°
2026-05-01 11:56 17.63768 -62.53373 18305 ft 428 kts 124°
2026-05-01 11:56 17.62163 -62.50732 18699 ft 431 kts 124°
2026-05-01 11:56 17.60542 -62.48067 19091 ft 434 kts 124°
2026-05-01 11:57 17.58916 -62.45389 19492 ft 437 kts 124°
2026-05-01 11:57 17.57833 -62.43601 19753 ft 439 kts 124°
2026-05-01 11:57 17.55638 -62.39965 20275 ft 443 kts 124°
2026-05-01 11:57 17.53984 -62.37227 20645 ft 446 kts 124°
2026-05-01 11:58 17.52321 -62.34474 21026 ft 449 kts 125°
2026-05-01 11:58 17.50643 -62.31700 21401 ft 452 kts 125°
2026-05-01 11:58 17.47255 -62.26108 22131 ft 457 kts 125°
2026-05-01 11:59 17.45544 -62.23287 22492 ft 460 kts 125°
2026-05-01 11:59 17.43825 -62.20455 22843 ft 462 kts 125°
2026-05-01 11:59 17.42677 -62.18567 23059 ft 464 kts 125°
2026-05-01 12:00 17.38594 -62.11861 23779 ft 470 kts 126°
2026-05-01 12:00 17.37430 -62.09949 23948 ft 472 kts 126°
2026-05-01 12:00 17.33890 -62.04122 24485 ft 477 kts 125°
2026-05-01 12:01 17.32107 -62.01184 24749 ft 479 kts 126°
2026-05-01 12:01 17.30315 -61.98233 25005 ft 482 kts 126°
2026-05-01 12:01 17.28511 -61.95263 25279 ft 484 kts 126°
2026-05-01 12:01 17.26696 -61.92284 25541 ft 486 kts 126°
2026-05-01 12:02 17.24902 -61.89277 25862 ft 488 kts 122°
2026-05-01 12:02 17.23457 -61.86054 26250 ft 491 kts 112°
2026-05-01 12:02 17.22497 -61.82619 26622 ft 494 kts 103°
2026-05-01 12:02 17.22068 -61.79052 26982 ft 496 kts 93°
2026-05-01 12:03 17.22013 -61.75442 27347 ft 497 kts 91°
2026-05-01 12:03 17.21965 -61.71831 27722 ft 497 kts 91°
2026-05-01 12:03 17.21910 -61.68216 28109 ft 497 kts 91°
2026-05-01 12:03 17.21849 -61.64602 28505 ft 497 kts 91°
2026-05-01 12:04 17.21783 -61.60990 28898 ft 498 kts 91°
2026-05-01 12:04 17.21716 -61.57367 29302 ft 498 kts 91°
2026-05-01 12:04 17.21651 -61.53746 29713 ft 498 kts 91°
2026-05-01 12:04 17.21589 -61.50129 30116 ft 498 kts 91°
2026-05-01 12:05 17.21529 -61.46504 30475 ft 498 kts 91°
2026-05-01 12:05 17.21403 -61.39275 31268 ft 496 kts 91°
2026-05-01 12:05 17.21340 -61.35668 31691 ft 495 kts 91°
2026-05-01 12:06 17.21276 -61.32074 32121 ft 494 kts 92°
2026-05-01 12:06 17.21209 -61.28489 32551 ft 492 kts 92°
2026-05-01 12:06 17.21142 -61.24914 32983 ft 491 kts 92°
2026-05-01 12:06 17.21077 -61.21353 33421 ft 490 kts 91°
2026-05-01 12:07 17.21013 -61.17793 33847 ft 489 kts 91°
2026-05-01 12:07 17.20947 -61.14246 34217 ft 488 kts 91°
2026-05-01 12:07 17.20879 -61.10700 34542 ft 487 kts 91°
2026-05-01 12:07 17.20809 -61.07160 34850 ft 487 kts 91°
2026-05-01 12:08 17.20741 -61.03616 34998 ft 488 kts 91°
2026-05-01 12:08 17.20672 -61.00049 35036 ft 494 kts 91°
2026-05-01 12:08 17.20528 -60.92761 35038 ft 506 kts 91°
2026-05-01 12:09 17.20375 -60.85433 35034 ft 508 kts 91°
2026-05-01 12:09 17.20221 -60.78049 35036 ft 508 kts 91°
2026-05-01 12:10 17.19989 -60.66957 35036 ft 509 kts 91°
2026-05-01 12:11 17.19748 -60.55867 35039 ft 509 kts 91°
2026-05-01 12:11 17.19589 -60.48466 35042 ft 509 kts 91°
2026-05-01 12:12 17.19424 -60.41070 35047 ft 509 kts 91°
2026-05-01 12:12 17.19254 -60.33673 35049 ft 509 kts 91°
2026-05-01 12:13 17.19079 -60.26281 35047 ft 508 kts 91°
2026-05-01 12:13 17.18904 -60.18895 35048 ft 508 kts 91°
2026-05-01 12:14 17.18725 -60.11505 35046 ft 508 kts 91°
2026-05-01 12:14 17.18546 -60.04174 35047 ft 508 kts 91°
2026-05-01 12:15 17.18372 -59.96789 35047 ft 508 kts 91°
2026-05-01 12:15 17.18185 -59.89409 35050 ft 508 kts 92°
2026-05-01 12:16 17.18000 -59.82029 35054 ft 508 kts 91°
2026-05-01 12:16 17.17816 -59.74642 35056 ft 508 kts 91°
2026-05-01 12:17 17.17620 -59.67253 35057 ft 508 kts 92°
2026-05-01 12:17 17.17420 -59.59868 35056 ft 508 kts 92°
2026-05-01 12:18 17.17224 -59.52530 35057 ft 508 kts 92°
2026-05-01 12:18 17.17019 -59.45147 35057 ft 508 kts 92°
2026-05-01 12:19 17.16814 -59.37763 35056 ft 508 kts 92°
2026-05-01 12:19 17.16610 -59.30374 35055 ft 508 kts 92°
2026-05-01 12:20 17.16404 -59.22985 35057 ft 509 kts 92°
2026-05-01 12:20 17.16200 -59.15595 35060 ft 508 kts 92°
2026-05-01 12:21 17.15985 -59.08207 35064 ft 508 kts 92°
2026-05-01 12:21 17.15764 -59.00820 35057 ft 508 kts 92°
2026-05-01 12:22 17.15548 -58.93438 35062 ft 508 kts 92°
2026-05-01 12:22 17.15332 -58.86052 35058 ft 508 kts 92°
2026-05-01 12:23 17.15110 -58.78673 35059 ft 508 kts 92°
2026-05-01 12:23 17.14882 -58.71284 35060 ft 508 kts 92°
2026-05-01 12:24 17.14640 -58.63903 35062 ft 508 kts 92°
2026-05-01 12:24 17.14402 -58.56521 35064 ft 508 kts 92°
2026-05-01 12:25 17.14059 -58.45436 35065 ft 508 kts 92°
2026-05-01 12:26 17.13817 -58.38052 35064 ft 508 kts 92°
2026-05-01 12:26 17.13456 -58.26971 35066 ft 509 kts 92°
2026-05-01 12:27 17.13085 -58.15884 35063 ft 509 kts 92°
2026-05-01 12:28 17.12701 -58.04801 35059 ft 509 kts 92°
2026-05-01 12:29 17.12331 -57.93719 35064 ft 509 kts 92°
2026-05-01 12:29 17.11945 -57.82636 35069 ft 509 kts 92°
2026-05-01 12:30 17.11544 -57.71560 35071 ft 508 kts 92°
2026-05-01 12:31 17.11268 -57.64175 35071 ft 508 kts 92°
2026-05-01 12:31 17.11006 -57.56796 35068 ft 508 kts 92°
2026-05-01 12:32 17.10743 -57.49414 35070 ft 508 kts 92°
2026-05-01 12:32 17.10322 -57.38353 35068 ft 508 kts 92°
2026-05-01 12:33 17.10038 -57.30970 35067 ft 508 kts 92°
2026-05-01 12:33 17.09760 -57.23583 35067 ft 509 kts 92°
2026-05-01 12:34 17.09486 -57.16197 35066 ft 509 kts 92°
2026-05-01 12:34 17.09202 -57.08811 35066 ft 509 kts 92°
2026-05-01 12:35 17.08913 -57.01423 35066 ft 508 kts 92°
2026-05-01 12:35 17.08620 -56.94047 35070 ft 508 kts 92°
2026-05-01 12:36 17.08330 -56.86663 35071 ft 508 kts 92°
2026-05-01 12:36 17.08038 -56.79335 35071 ft 508 kts 92°
2026-05-01 12:37 17.07735 -56.71957 35070 ft 508 kts 92°
2026-05-01 12:37 17.07431 -56.64576 35073 ft 508 kts 92°
2026-05-01 12:38 17.07123 -56.57196 35071 ft 508 kts 92°
2026-05-01 12:38 17.06809 -56.49810 35074 ft 508 kts 92°
2026-05-01 12:39 17.06499 -56.42433 35069 ft 508 kts 92°
2026-05-01 12:39 17.06191 -56.35056 35068 ft 508 kts 92°
2026-05-01 12:40 17.05881 -56.27681 35066 ft 508 kts 92°
2026-05-01 12:40 17.05567 -56.20296 35064 ft 509 kts 92°
2026-05-01 12:41 17.05244 -56.12911 35069 ft 509 kts 92°
2026-05-01 12:41 17.04917 -56.05516 35071 ft 509 kts 92°
2026-05-01 12:42 17.04584 -55.98118 35068 ft 510 kts 92°
2026-05-01 12:42 17.04258 -55.90721 35069 ft 510 kts 92°
2026-05-01 12:43 17.03928 -55.83328 35072 ft 510 kts 92°
2026-05-01 12:43 17.03591 -55.75981 35068 ft 509 kts 92°
2026-05-01 12:44 17.03256 -55.68588 35067 ft 510 kts 92°
2026-05-01 12:45 17.02575 -55.53780 35074 ft 510 kts 92°
2026-05-01 12:45 17.02232 -55.46375 35075 ft 510 kts 93°
2026-05-01 12:46 17.01879 -55.38978 35077 ft 510 kts 93°
2026-05-01 12:46 17.01580 -55.32834 35076 ft 510 kts 93°
2026-05-01 12:47 17.01214 -55.25043 35079 ft 509 kts 93°
2026-05-01 12:47 17.00860 -55.17656 35077 ft 509 kts 93°
2026-05-01 12:48 17.00500 -55.10272 35074 ft 509 kts 93°
2026-05-01 12:48 17.00135 -55.02892 35076 ft 509 kts 93°
2026-05-01 12:49 16.99888 -54.95513 35071 ft 509 kts 89°
2026-05-01 12:49 17.00109 -54.88127 35076 ft 508 kts 86°
2026-05-01 12:50 17.00466 -54.80748 35073 ft 508 kts 87°
2026-05-01 12:50 17.00691 -54.73369 35074 ft 508 kts 89°
2026-05-01 12:51 17.00819 -54.65979 35075 ft 508 kts 89°
2026-05-01 12:52 17.01041 -54.54902 35073 ft 508 kts 88°
2026-05-01 12:52 17.01297 -54.43838 35070 ft 508 kts 88°
2026-05-01 12:53 17.01538 -54.32770 35069 ft 508 kts 89°
2026-05-01 12:54 17.01694 -54.25428 35068 ft 509 kts 89°
2026-05-01 12:54 17.01918 -54.14341 35065 ft 509 kts 89°
2026-05-01 12:55 17.02133 -54.03256 35067 ft 509 kts 89°
2026-05-01 12:56 17.02275 -53.95861 35066 ft 509 kts 89°
2026-05-01 12:56 17.02417 -53.88453 35073 ft 510 kts 89°
2026-05-01 12:57 17.02562 -53.81044 35074 ft 510 kts 89°
2026-05-01 12:57 17.02764 -53.69935 35079 ft 510 kts 89°
2026-05-01 12:58 17.02896 -53.62527 35078 ft 510 kts 89°
2026-05-01 12:59 17.03091 -53.51401 35080 ft 511 kts 89°
2026-05-01 12:59 17.03284 -53.40272 35077 ft 511 kts 89°
2026-05-01 13:00 17.03463 -53.29146 35073 ft 511 kts 89°
2026-05-01 13:01 17.03636 -53.18007 35071 ft 511 kts 89°
2026-05-01 13:02 17.03806 -53.06862 35071 ft 512 kts 89°
2026-05-01 13:07 17.04873 -52.24929 35085 ft 513 kts 89°
2026-05-01 13:08 17.04959 -52.17464 35086 ft 513 kts 89°
2026-05-01 13:08 17.05037 -52.10010 35085 ft 513 kts 89°
2026-05-01 13:09 17.05109 -52.02556 35085 ft 513 kts 89°
2026-05-01 13:09 17.05181 -51.95104 35086 ft 513 kts 89°
2026-05-01 13:10 17.05260 -51.87649 35085 ft 513 kts 89°
2026-05-01 13:10 17.05318 -51.80202 35084 ft 512 kts 89°
2026-05-01 13:11 17.05380 -51.72757 35087 ft 512 kts 89°
2026-05-01 13:11 17.05444 -51.65317 35088 ft 512 kts 89°
2026-05-01 13:12 17.05507 -51.57871 35088 ft 512 kts 89°
2026-05-01 13:12 17.05559 -51.50427 35088 ft 512 kts 89°
2026-05-01 13:13 17.05620 -51.42985 35090 ft 512 kts 89°
2026-05-01 13:13 17.05665 -51.35555 35087 ft 512 kts 89°
2026-05-01 13:14 17.05709 -51.28122 35087 ft 512 kts 89°
2026-05-01 13:14 17.05755 -51.20690 35092 ft 511 kts 89°
2026-05-01 13:15 17.05800 -51.13263 35090 ft 511 kts 89°
2026-05-01 13:15 17.05843 -51.05847 35095 ft 510 kts 89°
2026-05-01 13:16 17.05881 -50.98436 35093 ft 510 kts 89°
2026-05-01 13:16 17.05915 -50.91029 35094 ft 510 kts 89°
2026-05-01 13:17 17.05976 -50.76271 35093 ft 509 kts 89°
2026-05-01 13:18 17.06008 -50.66378 35090 ft 509 kts 89°
2026-05-01 13:18 17.06031 -50.57790 35091 ft 509 kts 89°
2026-05-01 13:19 17.06046 -50.51601 35094 ft 508 kts 89°
2026-05-01 13:20 17.06077 -50.39324 35097 ft 508 kts 89°
2026-05-01 13:20 17.06088 -50.31946 35095 ft 508 kts 89°
2026-05-01 13:21 17.06105 -50.22070 35095 ft 508 kts 90°
2026-05-01 13:21 17.06108 -50.14690 35091 ft 508 kts 90°
2026-05-01 13:22 17.06105 -50.07360 35091 ft 508 kts 90°
2026-05-01 13:22 17.06113 -49.99986 35090 ft 507 kts 90°
2026-05-01 13:23 17.06118 -49.92611 35090 ft 507 kts 90°
2026-05-01 13:23 17.06113 -49.85239 35091 ft 507 kts 90°
2026-05-01 13:24 17.06103 -49.77870 35089 ft 507 kts 90°
2026-05-01 13:25 17.06090 -49.66814 35090 ft 507 kts 90°
2026-05-01 13:25 17.06071 -49.59442 35090 ft 507 kts 90°
2026-05-01 13:26 17.06061 -49.52061 35091 ft 507 kts 90°
2026-05-01 13:26 17.06047 -49.44697 35088 ft 507 kts 90°
2026-05-01 13:27 17.06021 -49.37323 35086 ft 507 kts 90°
2026-05-01 13:27 17.05984 -49.26309 35084 ft 507 kts 90°
2026-05-01 13:28 17.05937 -49.15255 35082 ft 507 kts 90°
2026-05-01 13:29 17.05875 -49.00509 35081 ft 508 kts 90°
2026-05-01 13:31 17.05756 -48.78372 35083 ft 508 kts 90°
2026-05-01 13:32 17.05632 -48.59924 35079 ft 508 kts 90°
2026-05-01 13:33 17.05498 -48.41535 35078 ft 508 kts 90°
2026-05-01 13:34 17.05381 -48.26760 35085 ft 509 kts 90°
2026-05-01 13:35 17.05274 -48.15671 35089 ft 509 kts 90°
2026-05-01 13:36 17.05182 -48.04576 35088 ft 509 kts 90°
2026-05-01 13:36 17.05068 -47.93485 35090 ft 509 kts 90°
2026-05-01 13:37 17.04991 -47.86091 35086 ft 509 kts 90°
2026-05-01 13:37 17.04913 -47.78704 35083 ft 509 kts 90°
2026-05-01 13:38 17.04793 -47.67618 35084 ft 508 kts 90°
2026-05-01 13:39 17.04708 -47.60288 35081 ft 508 kts 90°
2026-05-01 13:39 17.04625 -47.52900 35082 ft 508 kts 90°
2026-05-01 13:40 17.04532 -47.45519 35086 ft 508 kts 90°
2026-05-01 13:40 17.04435 -47.38138 35087 ft 508 kts 90°
2026-05-01 13:41 17.04335 -47.30758 35091 ft 508 kts 90°
2026-05-01 13:41 17.04245 -47.23371 35088 ft 508 kts 90°
2026-05-01 13:42 17.04145 -47.15989 35091 ft 508 kts 90°
2026-05-01 13:42 17.04040 -47.08608 35089 ft 508 kts 90°
2026-05-01 13:43 17.03935 -47.01229 35087 ft 508 kts 90°
2026-05-01 13:43 17.03820 -46.93848 35086 ft 508 kts 90°
2026-05-01 13:44 17.03706 -46.86464 35087 ft 508 kts 90°
2026-05-01 13:44 17.03604 -46.79078 35085 ft 508 kts 90°
2026-05-01 13:45 17.03484 -46.71692 35084 ft 509 kts 90°
2026-05-01 13:45 17.03347 -46.64301 35089 ft 509 kts 90°
2026-05-01 13:46 17.03220 -46.56910 35088 ft 509 kts 90°
2026-05-01 13:46 17.03102 -46.49509 35092 ft 509 kts 90°
2026-05-01 13:47 17.02977 -46.42169 35092 ft 509 kts 90°
2026-05-01 13:47 17.02856 -46.34774 35094 ft 509 kts 90°
2026-05-01 13:48 17.02727 -46.27376 35093 ft 509 kts 90°
2026-05-01 13:48 17.02591 -46.19986 35094 ft 509 kts 90°
2026-05-01 13:49 17.02454 -46.12596 35095 ft 509 kts 90°
2026-05-01 13:49 17.02306 -46.05200 35095 ft 509 kts 90°
2026-05-01 13:50 17.02149 -45.97807 35095 ft 509 kts 90°
2026-05-01 13:50 17.02000 -45.90424 35092 ft 509 kts 90°
2026-05-01 13:51 17.01861 -45.83036 35095 ft 508 kts 90°
2026-05-01 13:51 17.01717 -45.75653 35092 ft 508 kts 90°
2026-05-01 13:52 17.01556 -45.68279 35089 ft 508 kts 90°
2026-05-01 13:52 17.01393 -45.60906 35089 ft 508 kts 90°
2026-05-01 13:53 17.01236 -45.53532 35090 ft 508 kts 90°
2026-05-01 13:53 17.00995 -45.42474 35092 ft 508 kts 90°
2026-05-01 13:54 17.00820 -45.35092 35095 ft 508 kts 90°
2026-05-01 13:54 17.00652 -45.27711 35096 ft 508 kts 90°
2026-05-01 13:55 17.00490 -45.20330 35095 ft 508 kts 90°
2026-05-01 13:55 17.00314 -45.12950 35099 ft 508 kts 90°
2026-05-01 13:56 17.00131 -45.05572 35100 ft 508 kts 90°
2026-05-01 13:56 16.99959 -44.98195 35104 ft 508 kts 90°
2026-05-01 13:57 17.00023 -44.92023 35101 ft 507 kts 87°
2026-05-01 13:57 17.00354 -44.83481 35097 ft 506 kts 86°
2026-05-01 13:58 17.00597 -44.76134 35093 ft 506 kts 87°
2026-05-01 13:58 17.00764 -44.68785 35098 ft 506 kts 88°
2026-05-01 13:59 17.00906 -44.61446 35095 ft 505 kts 88°
2026-05-01 13:59 17.01060 -44.54103 35095 ft 506 kts 88°
2026-05-01 14:00 17.01224 -44.46766 35098 ft 505 kts 87°
2026-05-01 14:00 17.01397 -44.39419 35097 ft 505 kts 88°
2026-05-01 14:01 17.01549 -44.32080 35099 ft 505 kts 88°
2026-05-01 14:01 17.01703 -44.24744 35099 ft 505 kts 88°
2026-05-01 14:02 17.01850 -44.17405 35099 ft 505 kts 88°
2026-05-01 14:02 17.02000 -44.10068 35097 ft 505 kts 88°
2026-05-01 14:03 17.02153 -44.02729 35100 ft 505 kts 88°
2026-05-01 14:03 17.02292 -43.95387 35103 ft 505 kts 88°
2026-05-01 14:04 17.02427 -43.88054 35102 ft 505 kts 88°
2026-05-01 14:04 17.02549 -43.81954 35101 ft 505 kts 88°
2026-05-01 14:05 17.02713 -43.73390 35100 ft 505 kts 88°
2026-05-01 14:05 17.02835 -43.66062 35104 ft 504 kts 88°
2026-05-01 14:06 17.02959 -43.58734 35102 ft 505 kts 88°
2026-05-01 14:06 17.03095 -43.51444 35097 ft 505 kts 88°
2026-05-01 14:07 17.03224 -43.44118 35095 ft 505 kts 88°
2026-05-01 14:08 17.03402 -43.33114 35095 ft 505 kts 88°
2026-05-01 14:08 17.03499 -43.26967 35088 ft 505 kts 88°
2026-05-01 14:09 17.03607 -43.19628 35085 ft 505 kts 88°
2026-05-01 14:09 17.03720 -43.12277 35090 ft 506 kts 88°
2026-05-01 14:10 17.03838 -43.04925 35093 ft 506 kts 88°
2026-05-01 14:10 17.03956 -42.97564 35091 ft 507 kts 88°
2026-05-01 14:11 17.04058 -42.90251 35096 ft 507 kts 88°
2026-05-01 14:11 17.04205 -42.79159 35101 ft 506 kts 88°
2026-05-01 14:12 17.04311 -42.71806 35101 ft 506 kts 88°
2026-05-01 14:12 17.04400 -42.64501 35101 ft 506 kts 88°
2026-05-01 14:13 17.04490 -42.57163 35102 ft 505 kts 88°
2026-05-01 14:13 17.04582 -42.49826 35105 ft 505 kts 88°
2026-05-01 14:14 17.04673 -42.42494 35105 ft 504 kts 88°
2026-05-01 14:14 17.04760 -42.35175 35101 ft 504 kts 88°
2026-05-01 14:15 17.04843 -42.27854 35099 ft 504 kts 88°
2026-05-01 14:15 17.04922 -42.20537 35097 ft 503 kts 88°
2026-05-01 14:16 17.04996 -42.13227 35095 ft 503 kts 88°
2026-05-01 14:16 17.05080 -42.05913 35097 ft 503 kts 88°
2026-05-01 14:17 17.05155 -41.98608 35094 ft 503 kts 88°
2026-05-01 14:17 17.05225 -41.91301 35090 ft 503 kts 88°
2026-05-01 14:18 17.05289 -41.83991 35088 ft 503 kts 89°
2026-05-01 14:18 17.05338 -41.77919 35089 ft 503 kts 89°
2026-05-01 14:19 17.05410 -41.69381 35094 ft 503 kts 89°
2026-05-01 14:19 17.05472 -41.62120 35093 ft 503 kts 89°
2026-05-01 14:20 17.05556 -41.51161 35093 ft 503 kts 89°
2026-05-01 14:21 17.05604 -41.43857 35097 ft 503 kts 89°
2026-05-01 14:21 17.05655 -41.36556 35097 ft 503 kts 89°
2026-05-01 14:22 17.05728 -41.25598 35094 ft 503 kts 89°
2026-05-01 14:22 17.05773 -41.18292 35098 ft 503 kts 89°
2026-05-01 14:23 17.05815 -41.10981 35097 ft 503 kts 89°
2026-05-01 14:23 17.05857 -41.03671 35095 ft 503 kts 89°
2026-05-01 14:24 17.05891 -40.96409 35095 ft 503 kts 89°
2026-05-01 14:24 17.05921 -40.89093 35099 ft 504 kts 89°
2026-05-01 14:25 17.05949 -40.81775 35097 ft 504 kts 89°
2026-05-01 14:25 17.05977 -40.74459 35105 ft 503 kts 89°
2026-05-01 14:26 17.06013 -40.63496 35103 ft 503 kts 89°
2026-05-01 14:27 17.06041 -40.56188 35104 ft 503 kts 89°
2026-05-01 14:27 17.06062 -40.48924 35104 ft 503 kts 89°
2026-05-01 14:28 17.06070 -40.37967 35105 ft 503 kts 89°
2026-05-01 14:28 17.06085 -40.30662 35103 ft 503 kts 89°
2026-05-01 14:29 17.06106 -40.23360 35103 ft 502 kts 89°
2026-05-01 14:30 17.06115 -40.08759 35103 ft 502 kts 89°
2026-05-01 14:31 17.06117 -39.97819 35102 ft 502 kts 89°
2026-05-01 14:31 17.06111 -39.90526 35098 ft 502 kts 89°
2026-05-01 14:32 17.06105 -39.83230 35097 ft 502 kts 89°
2026-05-01 14:32 17.06108 -39.75936 35096 ft 502 kts 89°
2026-05-01 14:33 17.06097 -39.68654 35095 ft 502 kts 89°
2026-05-01 14:33 17.06079 -39.61367 35093 ft 501 kts 89°
2026-05-01 14:34 17.06053 -39.54076 35096 ft 501 kts 89°
2026-05-01 14:34 17.06035 -39.46796 35094 ft 501 kts 89°
2026-05-01 14:35 17.06015 -39.39506 35089 ft 501 kts 89°
2026-05-01 14:35 17.06004 -39.32216 35087 ft 502 kts 89°
2026-05-01 14:36 17.05982 -39.24930 35093 ft 502 kts 89°
2026-05-01 14:36 17.05956 -39.17637 35088 ft 502 kts 90°
2026-05-01 14:37 17.05923 -39.10341 35090 ft 502 kts 90°
2026-05-01 14:37 17.05888 -39.03047 35090 ft 502 kts 90°
2026-05-01 14:38 17.05844 -38.95742 35096 ft 503 kts 90°
2026-05-01 14:38 17.05807 -38.88436 35093 ft 503 kts 90°
2026-05-01 14:39 17.05776 -38.81128 35096 ft 503 kts 90°
2026-05-01 14:39 17.05734 -38.73822 35097 ft 503 kts 90°
2026-05-01 14:40 17.05679 -38.66510 35097 ft 503 kts 90°
2026-05-01 14:40 17.05623 -38.59193 35100 ft 503 kts 90°
2026-05-01 14:41 17.05572 -38.51926 35100 ft 503 kts 90°
2026-05-01 14:41 17.05520 -38.44611 35102 ft 504 kts 90°
2026-05-01 14:42 17.05466 -38.37291 35105 ft 504 kts 90°
2026-05-01 14:42 17.05406 -38.29960 35108 ft 504 kts 90°
2026-05-01 14:43 17.05347 -38.22638 35104 ft 504 kts 90°
2026-05-01 14:43 17.05286 -38.15306 35104 ft 504 kts 90°
2026-05-01 14:44 17.05217 -38.07975 35104 ft 504 kts 91°
2026-05-01 14:44 17.05104 -37.96989 35099 ft 504 kts 91°
2026-05-01 14:45 17.04994 -37.86005 35097 ft 504 kts 91°
2026-05-01 14:46 17.04923 -37.78682 35099 ft 504 kts 91°
2026-05-01 14:46 17.04799 -37.67690 35099 ft 504 kts 91°
2026-05-01 14:47 17.04706 -37.60360 35104 ft 504 kts 91°
2026-05-01 14:48 17.04571 -37.49365 35104 ft 505 kts 91°
2026-05-01 14:48 17.04435 -37.38368 35101 ft 505 kts 91°
2026-05-01 14:49 17.04251 -37.23684 35103 ft 505 kts 91°
2026-05-01 14:50 17.04043 -37.09010 35107 ft 505 kts 92°
2026-05-01 14:51 17.03875 -36.98000 35106 ft 505 kts 92°
2026-05-01 14:52 17.03718 -36.86995 35101 ft 505 kts 91°
2026-05-01 14:53 17.03548 -36.76043 35101 ft 505 kts 92°
2026-05-01 14:53 17.03428 -36.68710 35103 ft 505 kts 92°
2026-05-01 14:54 17.03310 -36.61320 35105 ft 505 kts 92°
2026-05-01 14:54 17.03190 -36.54025 35106 ft 506 kts 92°
2026-05-01 14:55 17.03057 -36.46682 35110 ft 506 kts 92°
2026-05-01 14:55 17.02931 -36.39332 35111 ft 506 kts 92°
2026-05-01 14:56 17.02803 -36.31995 35107 ft 505 kts 92°
2026-05-01 14:56 17.02674 -36.24651 35107 ft 505 kts 92°
2026-05-01 14:57 17.02529 -36.17310 35110 ft 506 kts 92°
2026-05-01 14:57 17.02336 -36.07534 35106 ft 505 kts 92°
2026-05-01 14:58 17.02185 -35.98950 35108 ft 506 kts 92°
2026-05-01 14:58 17.02071 -35.92844 35105 ft 506 kts 92°
2026-05-01 14:59 17.01914 -35.85504 35103 ft 506 kts 92°
2026-05-01 14:59 17.01734 -35.76961 35111 ft 506 kts 92°
2026-05-01 15:00 17.01605 -35.70801 35110 ft 506 kts 92°